Regional Weather Roundup
Issued by NWS Northern Indiana

Home | Current Version | Previous Version | Text Only | Print | Product List | Glossary Off
Versions: 1 2 3 4 5 6 7 8 9 10 11 12 13 14 15 16 17 18 19 20 21 22 23 24 25 26 27 28 29 30 31 32 33 34 35 36 37 38 39 40 41 42 43 44 45 46 47 48 49 50

482
ASUS43 KIWX 220700
RWRIWX

KIWX WEATHER ROUNDUP
NATIONAL WEATHER SERVICE NORTHERN INDIANA
300 AM EDT THU JUN 22 2017

NOTE: "FAIR" INDICATES FEW OR NO CLOUDS BELOW 12,000 FEET WITH NO
SIGNIFICANT WEATHER AND/OR OBSTRUCTIONS TO VISIBILITY.

* THESE STATIONS ARE NOT UNDER NWS QUALITY CONTROL. THEY ALSO MAY NOT
  REPORT WEATHER SUCH AS PRECIPITATION OR FOG.

INZ001>027-220800-
NORTHERN INDIANA

CITY           SKY/WX    TMP DP  RH WIND       PRES   REMARKS
GARY*          CLOUDY    73  63  68 S8        29.86F
MICHIGAN CITY* CLOUDY    72  61  68 S6        29.87F
KNOX*          CLOUDY    70  55  60 S8        29.89F
SOUTH BEND     PTCLDY    71  60  68 S9        29.90F
GOSHEN         MOCLDY    71  57  61 S10       29.92F
MONTICELLO*    CLOUDY    74  69  83 S7        29.92S
FORT WAYNE     CLOUDY    70  61  73 SE7       29.95F
PERU/GRISSOM   PTCLDY    73  72  96 SW10      29.92F

$$
INZ028>050-220800-
CENTRAL INDIANA

CITY           SKY/WX    TMP DP  RH WIND       PRES   REMARKS
LAFAYETTE      MOCLDY    74  68  81 SW6       29.92S
KOKOMO*        PTCLDY    76  69  79 SW12      29.95S
MUNCIE*        PTCLDY    76  69  79 SW9       29.97R
INDIANAPOLIS   PTCLDY    74  68  81 SW9       29.97S

$$
MIZ043>046-050>051-056>058-064>065-071>073-077>080-220800-
SOUTHWEST LOWER MICHIGAN

CITY           SKY/WX    TMP DP  RH WIND       PRES   REMARKS
BATTLE CREEK   PTCLDY    66  55  67 S9        29.92F
BENTON HARBOR  CLOUDY    69  56  62 SE6       29.87F
COLDWATER*     PTCLDY    67  52  59 SE9       29.93F
HILLSDALE*     PTCLDY    63  52  67 SE6       29.95F
HOLLAND        CLEAR     64  55  72 S6        29.88F
GRAND RAPIDS   CLEAR     62  56  80 S7        29.89F
KALAMAZOO      PTCLDY    68  53  58 S7        29.91F
STURGIS*       PTCLDY    67  55  66 SE9       29.91F
THREE RIVERS*  MOCLDY    67  55  65 SE3       29.91F

$$
OHZ001>008-015>018-024>025-220800-
NORTHWEST OHIO

CITY           SKY/WX    TMP DP  RH WIND       PRES   REMARKS
DEFIANCE       CLOUDY    66  50  56 SE3       29.95F
FINDLAY        MOCLDY    68  52  56 SE3       29.95F
TOLEDO EXPRESS MOCLDY    63  53  70 CALM      29.95F
TOLEDO METCALF CLOUDY    65  54  67 E3        29.96F
LIMA           PTCLDY    68  61  78 S7        29.96F

$$
AND FOR LAKE MICHIGAN COASTAL AND OPEN LAKE BUOY OBSERVATIONS

STATION/POSITION TEMP    WIND        PRES    VSBY  WAVE
                 AIR SEA DIR/SP/G                  HT/PER
                 (F)     (DEG/KT/KT) (MB)    (MI)  (FT/S)
CALUMET HARBOR    74     170/  6/  8 1010.4F
MICHIGAN CITY     73     140/ 13/ 16   N/A
BURNS HARBOR      74     170/ 10/ 15 1011.5F
SOUTH LAKE BUOY   65 61  120/ 12/ 12 1011.1          0
4 MI NW BRIDGMAN  72 69  170/ 10/ 12 1011.2F         1/ 2
MICHIGAN CITY     71 68  160/  8/ 12   N/A           1

$$
&&




USA.gov is the U.S. government's official web portal to all federal, state and local government web resources and services.